�N����,����,�~����,�C��,���x,�C��,����,���ϕ���,�ő�u�ԕ���,�ő厞����,���˗�,�I�_���x,�n�����x
"17/05/01","01:00",0.0,12.0,82.4,1006.4,312.8,1.0,1.9,309.6,0.00,9.1,14.6
"17/05/01","02:00",0.0,11.7,84.5,1006.2,323.8,1.2,2.0,335.3,0.00,9.2,14.5
"17/05/01","03:00",0.0,11.0,86.5,1006.2,308.2,1.1,2.4,307.5,0.00,8.9,14.3
"17/05/01","04:00",0.0,11.2,88.8,1006.7,306.2,1.0,2.0,321.7,0.00,9.5,13.9
"17/05/01","05:00",0.0,11.0,89.7,1007.1,290.4,0.7,2.2,319.3,0.00,9.4,13.7
"17/05/01","06:00",0.0,12.1,88.0,1007.8,316.5,1.1,1.9,313.7,0.00,10.2,13.9
"17/05/01","07:00",0.0,15.1,84.2,1008.3,302.8,1.0,2.1,339.2,0.24,12.5,13.8
"17/05/01","08:00",0.0,18.4,68.4,1008.3,157.4,0.2,1.7,330.9,0.80,12.5,14.3
"17/05/01","09:00",0.0,19.7,65.2,1007.8,159.3,0.8,1.7,332.7,1.31,13.0,14.7
"17/05/01","10:00",0.0,21.7,57.3,1007.8,15.7,1.0,2.2,344.3,1.10,12.9,15.5
"17/05/01","11:00",0.0,20.9,60.4,1007.6,333.1,1.5,4.3,339.6,0.62,13.0,15.7
"17/05/01","12:00",0.0,23.9,47.8,1006.9,238.6,1.8,4.3,225.6,2.85,12.2,16.7
"17/05/01","13:00",0.0,25.3,42.6,1005.7,350.4,1.5,4.9,334.9,2.52,11.7,17.5
"17/05/01","14:00",0.0,22.1,51.6,1007.4,341.7,3.6,7.0,332.0,1.14,11.7,17.7
"17/05/01","15:00",0.0,22.1,60.0,1007.6,332.4,3.4,9.6,338.1,2.00,14.0,17.7
"17/05/01","16:00",0.0,21.4,56.1,1008.3,343.5,3.4,8.6,340.3,0.98,12.3,17.7
"17/05/01","17:00",0.0,21.1,42.5,1009.3,355.6,3.1,9.0,344.2,1.29,7.9,17.4
"17/05/01","18:00",0.0,18.2,54.1,1010.7,358.7,3.1,9.0,344.2,0.46,8.8,17.0
"17/05/01","19:00",0.0,16.1,57.9,1011.9,344.7,2.6,8.0,342.3,0.00,7.9,16.3
"17/05/01","20:00",0.0,14.6,66.9,1013.0,327.6,3.7,5.8,326.7,0.00,8.6,15.7
"17/05/01","21:00",0.0,12.5,72.8,1013.5,345.1,1.8,4.8,324.6,0.00,7.8,15.5
"17/05/01","22:00",0.0,11.5,78.0,1014.2,329.9,2.0,3.1,341.1,0.00,7.8,15.2
"17/05/01","23:00",0.0,9.9,83.0,1014.5,314.3,1.5,2.8,333.3,0.00,7.2,14.4
"17/05/01","24:00",0.0,9.8,86.2,1014.7,314.8,2.5,4.4,318.1,0.00,7.6,14.0
"17/05/02","01:00",0.0,9.5,87.1,1015.4,324.9,3.2,4.5,329.7,0.00,7.5,13.9
"17/05/02","02:00",0.0,9.0,88.1,1015.6,318.1,3.2,4.1,318.0,0.00,7.2,13.6
"17/05/02","03:00",0.0,9.1,88.0,1015.9,340.6,2.0,5.1,325.8,0.00,7.3,13.5
"17/05/02","04:00",0.0,8.5,89.8,1016.4,331.1,2.7,4.7,320.2,0.00,7.0,13.3
"17/05/02","05:00",0.0,8.3,89.8,1016.8,341.0,3.2,4.9,339.3,0.00,6.8,13.1
"17/05/02","06:00",0.0,8.3,89.8,1017.3,331.1,1.3,4.3,336.9,0.00,6.8,12.9
"17/05/02","07:00",0.0,11.7,80.3,1018.5,329.2,1.0,3.2,311.1,0.27,8.5,12.8
"17/05/02","08:00",0.0,14.5,69.0,1018.5,186.2,1.8,3.5,218.4,1.02,8.9,13.2
"17/05/02","09:00",0.0,16.9,56.7,1018.0,35.1,0.8,3.1,153.8,1.95,8.3,13.9
"17/05/02","10:00",0.0,18.6,52.6,1017.8,176.3,1.5,3.6,339.1,2.76,8.8,14.8
"17/05/02","11:00",0.0,19.8,49.8,1017.3,277.9,1.5,4.3,185.9,3.34,9.1,16.2
"17/05/02","12:00",0.0,21.3,41.0,1016.1,199.8,2.3,5.8,194.2,3.67,7.6,17.5
"17/05/02","13:00",0.0,23.4,35.9,1015.4,170.7,2.5,6.0,323.1,3.76,7.5,18.8
"17/05/02","14:00",0.0,23.9,33.6,1014.0,267.2,0.7,4.4,162.0,3.46,7.0,19.3
"17/05/02","15:00",0.0,23.6,30.9,1014.2,115.4,1.7,5.6,127.3,2.77,5.5,19.3
"17/05/02","16:00",0.0,24.2,33.6,1014.0,86.8,1.5,4.5,115.5,2.20,7.2,19.4
"17/05/02","17:00",0.0,23.8,34.0,1014.5,72.2,1.3,4.4,113.9,1.25,7.1,19.0
"17/05/02","18:00",0.0,21.8,38.3,1014.9,41.6,1.0,3.7,25.8,0.47,7.0,18.5
"17/05/02","19:00",0.0,18.3,53.6,1016.1,343.0,2.6,5.2,333.7,0.03,8.8,17.7
"17/05/02","20:00",0.0,16.1,61.3,1017.5,307.1,1.8,4.1,342.7,0.00,8.7,17.0
"17/05/02","21:00",0.0,15.0,66.2,1018.7,331.8,3.1,4.8,347.3,0.00,8.8,16.5
"17/05/02","22:00",0.0,13.8,71.5,1019.2,331.9,2.7,4.5,341.2,0.00,8.8,16.0
"17/05/02","23:00",0.0,12.5,76.6,1019.2,303.8,1.0,3.9,335.0,0.00,8.5,15.5
"17/05/02","24:00",0.0,11.7,81.2,1019.4,306.0,1.2,2.4,327.9,0.00,8.6,14.9
"17/05/03","01:00",0.0,11.3,84.7,1019.7,301.0,1.3,2.1,305.5,0.00,8.9,14.5
"17/05/03","02:00",0.0,11.1,86.4,1019.7,310.8,1.3,2.8,327.9,0.00,9.0,14.6
"17/05/03","03:00",0.0,11.0,88.6,1020.1,302.2,1.2,2.4,318.9,0.00,9.2,14.0
"17/05/03","04:00",0.0,11.2,89.6,1020.1,300.9,1.1,2.2,331.8,0.00,9.6,14.0
"17/05/03","05:00",0.0,11.2,91.1,1020.6,306.2,1.5,2.5,324.2,0.00,9.8,13.7
"17/05/03","06:00",0.0,11.5,91.8,1020.4,302.2,1.1,2.0,299.4,0.00,10.3,13.7
"17/05/03","07:00",0.0,14.2,88.8,1021.5,303.9,1.1,2.1,312.8,0.18,12.4,14.0
"17/05/03","08:00",0.0,17.8,72.3,1022.3,113.2,0.8,1.9,329.0,0.75,12.8,14.4
"17/05/03","09:00",0.0,19.4,66.3,1021.5,126.8,1.5,3.9,114.4,1.44,13.0,15.3
"17/05/03","10:00",0.0,20.6,59.6,1020.6,133.5,1.5,4.8,131.3,2.19,12.5,16.0
"17/05/03","11:00",0.0,21.9,58.1,1020.1,157.3,1.0,4.0,112.8,1.82,13.3,16.7
"17/05/03","12:00",0.0,23.2,52.3,1018.7,142.7,2.0,5.6,196.0,3.17,12.9,17.9
"17/05/03","13:00",0.0,23.8,45.4,1017.3,146.0,2.2,5.0,151.9,3.13,11.3,18.9
"17/05/03","14:00",0.0,23.2,44.2,1017.5,165.6,2.6,5.6,167.5,1.68,10.4,18.8
"17/05/03","15:00",0.0,23.7,43.4,1016.6,148.9,1.3,4.4,153.3,1.51,10.6,19.0
"17/05/03","16:00",0.0,22.5,49.9,1017.1,113.8,2.1,4.1,123.4,0.56,11.6,18.7
"17/05/03","17:00",0.0,21.9,51.8,1017.8,97.9,1.5,4.9,110.2,0.51,11.6,18.4
"17/05/03","18:00",0.0,20.6,53.8,1018.0,58.5,1.3,4.4,111.6,0.44,11.0,17.8
"17/05/03","19:00",0.0,19.4,57.9,1018.7,12.4,1.0,3.2,115.5,0.03,10.9,17.5
"17/05/03","20:00",0.0,18.2,62.5,1019.7,72.2,1.0,2.8,336.6,0.00,11.0,16.9
"17/05/03","21:00",0.0,16.4,69.5,1020.4,331.3,1.0,2.9,67.4,0.00,10.9,16.6
"17/05/03","22:00",0.0,14.7,77.5,1020.1,330.7,1.5,2.0,307.6,0.00,10.9,16.2
"17/05/03","23:00",0.0,13.2,82.4,1019.7,317.4,1.1,2.5,325.0,0.00,10.3,15.6
"17/05/03","24:00",0.0,12.4,84.8,1019.7,319.6,1.7,2.7,335.1,0.00,10.0,15.2
"17/05/04","01:00",0.0,11.9,86.4,1019.7,284.1,1.0,2.0,302.2,0.00,9.7,14.9
"17/05/04","02:00",0.0,11.0,89.3,1018.2,318.2,1.3,2.7,327.2,0.00,9.3,14.6
"17/05/04","03:00",0.0,11.8,87.2,1018.0,307.8,1.7,2.8,307.2,0.00,9.8,14.2
"17/05/04","04:00",0.0,10.7,88.9,1018.0,320.4,1.2,2.5,316.9,0.00,9.0,14.0
"17/05/04","05:00",0.0,10.3,90.8,1017.8,305.2,1.6,2.2,315.4,0.00,8.9,13.8
"17/05/04","06:00",0.0,10.9,92.4,1018.2,311.9,1.3,2.7,336.3,0.00,9.8,13.5
"17/05/04","07:00",0.0,16.3,80.2,1019.0,331.5,0.6,3.2,315.5,0.21,12.9,13.9
"17/05/04","08:00",0.0,18.9,70.2,1018.2,115.7,1.6,3.3,112.9,0.99,13.4,14.5
"17/05/04","09:00",0.0,20.3,63.9,1017.3,133.9,2.7,5.2,128.0,1.97,13.3,15.2
"17/05/04","10:00",0.0,21.7,59.7,1016.1,127.4,2.7,5.8,154.9,2.72,13.6,15.9
"17/05/04","11:00",0.0,22.2,55.5,1015.4,105.9,2.2,6.0,125.8,2.47,12.9,17.1
"17/05/04","12:00",0.0,23.6,55.0,1014.5,82.8,2.0,5.0,112.1,2.62,14.1,18.1
"17/05/04","13:00",0.0,23.4,53.8,1014.0,89.8,2.1,6.6,114.3,2.58,13.6,18.6
"17/05/04","14:00",0.0,22.2,56.3,1013.5,92.7,2.3,6.3,122.3,1.42,13.1,18.6
"17/05/04","15:00",0.0,22.2,57.0,1013.3,91.0,2.0,6.2,121.1,1.37,13.3,18.7
"17/05/04","16:00",0.0,21.8,58.5,1012.8,107.0,2.5,5.5,45.1,0.77,13.3,18.5
"17/05/04","17:00",0.0,21.1,62.6,1012.8,102.2,2.5,6.6,116.9,0.36,13.7,18.2
"17/05/04","18:00",0.0,20.5,64.4,1013.0,116.3,2.1,6.6,119.9,0.39,13.6,18.0
"17/05/04","19:00",0.0,19.8,66.1,1013.5,115.1,1.5,4.4,126.8,0.03,13.3,17.6
"17/05/04","20:00",0.0,19.2,67.8,1014.2,96.9,1.7,3.6,111.3,0.00,13.2,17.4
"17/05/04","21:00",0.0,18.9,68.6,1014.5,108.5,1.6,4.7,119.1,0.00,13.0,16.9
"17/05/04","22:00",0.0,18.4,69.9,1014.7,72.6,1.1,5.2,126.6,0.00,12.9,16.7
"17/05/04","23:00",0.0,17.7,73.3,1014.5,104.4,1.1,3.3,125.3,0.00,12.9,16.3
"17/05/04","24:00",0.0,17.9,73.5,1014.2,89.8,1.0,2.6,110.8,0.00,13.1,16.2
"17/05/05","01:00",0.0,16.9,77.0,1013.8,342.0,0.8,2.8,112.9,0.00,12.9,16.0
"17/05/05","02:00",0.0,16.7,80.5,1013.0,29.5,0.7,2.0,337.3,0.00,13.4,16.1
"17/05/05","03:00",0.0,16.4,82.3,1012.8,304.8,1.0,2.0,317.6,0.00,13.4,15.8
"17/05/05","04:00",0.0,15.4,85.8,1012.6,295.7,1.3,1.9,314.4,0.00,13.1,15.8
"17/05/05","05:00",0.0,14.1,89.4,1012.1,321.4,1.2,2.2,321.8,0.00,12.4,15.5
"17/05/05","06:00",0.0,14.7,90.8,1012.6,288.1,1.0,2.0,340.1,0.01,13.3,15.2
"17/05/05","07:00",0.0,18.2,80.9,1013.3,285.2,0.6,2.0,343.8,0.31,14.9,15.5
"17/05/05","08:00",0.0,19.1,72.5,1012.6,153.4,1.2,3.1,125.4,0.68,14.1,15.8
"17/05/05","09:00",0.0,20.9,66.7,1011.9,82.5,1.1,3.7,110.9,1.38,14.5,16.4
"17/05/05","10:00",0.0,21.3,64.1,1011.2,174.7,1.5,3.4,187.2,1.81,14.3,16.9
"17/05/05","11:00",0.0,23.6,57.4,1010.2,183.6,1.3,3.7,213.7,2.58,14.7,18.1
"17/05/05","12:00",0.0,25.3,53.7,1008.8,150.5,1.6,4.3,140.7,3.33,15.3,19.2
"17/05/05","13:00",0.0,26.8,49.7,1008.3,193.6,1.8,4.2,161.7,3.38,15.5,20.5
"17/05/05","14:00",0.0,25.6,52.2,1007.6,269.4,1.6,6.0,355.7,1.77,15.1,20.2
"17/05/05","15:00",0.0,27.2,50.6,1006.7,216.0,1.6,4.4,306.8,1.71,16.1,20.4
"17/05/05","16:00",0.0,26.9,49.5,1006.2,233.5,1.1,3.7,202.8,1.77,15.5,20.5
"17/05/05","17:00",0.0,27.4,47.5,1005.5,237.6,1.7,4.9,233.7,1.09,15.3,20.4
"17/05/05","18:00",0.0,25.8,50.2,1006.7,249.4,1.6,4.2,236.0,0.43,14.7,19.7
"17/05/05","19:00",0.0,23.4,57.3,1007.4,225.2,1.2,3.7,328.9,0.01,14.5,19.3
"17/05/05","20:00",0.0,20.1,70.2,1008.1,319.9,1.6,3.2,340.4,0.00,14.5,18.6
"17/05/05","21:00",0.0,18.9,74.2,1009.7,297.2,0.6,2.4,335.5,0.00,14.2,18.1
"17/05/05","22:00",0.0,18.1,78.9,1009.7,302.9,1.0,2.9,319.5,0.00,14.4,17.7
"17/05/05","23:00",0.0,17.7,81.8,1009.7,320.0,2.2,3.6,318.4,0.00,14.6,17.3
"17/05/05","24:00",0.0,17.6,84.9,1009.3,320.1,2.6,5.0,339.8,0.00,15.1,17.1
"17/05/06","01:00",0.0,16.5,88.1,1009.0,312.6,1.5,2.1,319.3,0.00,14.6,16.8
"17/05/06","02:00",0.0,16.1,91.1,1008.6,313.9,1.3,2.0,336.4,0.00,14.7,16.6
"17/05/06","03:00",0.0,16.2,91.3,1008.3,321.8,1.2,1.8,319.2,0.00,14.8,16.3
"17/05/06","04:00",0.0,16.4,92.4,1008.6,278.3,1.0,1.6,321.8,0.00,15.2,16.3
"17/05/06","05:00",0.0,17.1,91.8,1008.6,334.0,1.2,2.1,311.3,0.00,15.8,16.2
"17/05/06","06:00",0.0,17.5,91.6,1008.6,329.0,1.2,2.0,322.8,0.00,16.2,16.4
"17/05/06","07:00",0.2,18.7,91.0,1008.6,308.0,1.0,1.8,325.3,0.12,17.2,16.5
"17/05/06","08:00",0.0,21.0,81.5,1007.8,227.9,0.5,2.5,336.2,0.72,17.8,16.9
"17/05/06","09:00",0.0,21.5,77.2,1007.6,311.0,0.2,2.5,198.5,0.81,17.4,17.3
"17/05/06","10:00",0.0,21.9,76.7,1006.9,337.1,1.0,2.2,327.5,0.35,17.7,17.5
"17/05/06","11:00",0.0,22.8,73.4,1006.7,267.6,1.8,4.7,311.1,0.49,17.8,17.7
"17/05/06","12:00",0.0,22.8,74.5,1006.4,283.4,1.5,3.2,253.7,0.37,18.1,17.8
"17/05/06","13:00",0.2,20.5,80.7,1006.2,342.6,3.7,6.6,339.5,0.32,17.1,17.9
"17/05/06","14:00",0.2,18.4,72.9,1006.9,340.7,4.2,10.5,340.7,0.94,13.5,17.8
"17/05/06","15:00",0.2,18.2,73.6,1006.7,322.3,2.1,9.8,338.9,0.24,13.5,17.3
"17/05/06","16:00",0.0,18.7,72.4,1006.7,310.2,1.0,3.4,310.2,0.22,13.7,17.5
"17/05/06","17:00",0.0,17.7,77.7,1006.4,321.9,1.7,4.3,340.4,0.12,13.8,17.5
"17/05/06","18:00",0.0,18.2,73.9,1006.4,334.1,2.3,4.0,334.5,0.14,13.5,17.3
"17/05/06","19:00",0.0,17.6,78.4,1006.2,325.0,1.6,4.3,333.9,0.03,13.8,17.1
"17/05/06","20:00",0.0,16.1,84.4,1006.2,289.5,1.0,2.0,318.4,0.00,13.5,16.7
"17/05/06","21:00",0.0,15.5,86.0,1006.9,289.7,1.1,3.7,333.6,0.00,13.2,16.3
"17/05/06","22:00",0.0,15.3,87.8,1007.6,330.1,1.6,4.5,336.6,0.00,13.3,16.2
"17/05/06","23:00",0.0,14.4,91.4,1006.9,297.8,1.1,1.8,316.1,0.00,13.1,15.7
"17/05/06","24:00",0.0,15.3,90.5,1007.1,322.8,2.3,3.9,333.6,0.00,13.8,15.8
"17/05/07","01:00",0.0,15.4,86.6,1007.8,321.1,2.8,4.5,319.0,0.00,13.2,15.9
"17/05/07","02:00",0.0,14.9,87.7,1007.6,293.4,1.0,3.3,330.2,0.00,12.9,15.8
"17/05/07","03:00",0.0,14.6,89.3,1007.6,312.7,1.6,3.2,315.6,0.00,12.9,15.8
"17/05/07","04:00",0.0,14.5,88.3,1007.8,317.1,1.1,3.2,331.5,0.00,12.6,15.5
"17/05/07","05:00",0.0,14.0,90.2,1007.6,292.2,1.5,2.5,330.5,0.00,12.5,15.4
"17/05/07","06:00",0.0,13.9,90.0,1008.6,323.5,1.0,2.9,329.1,0.00,12.3,15.2
"17/05/07","07:00",0.0,15.6,84.6,1009.3,320.7,1.6,4.7,324.8,0.19,13.1,15.4
"17/05/07","08:00",0.0,18.2,70.8,1009.0,216.0,0.5,2.6,340.9,0.72,12.9,15.8
"17/05/07","09:00",0.0,20.2,42.5,1008.3,306.4,2.3,5.2,326.6,1.70,7.1,16.3
"17/05/07","10:00",0.0,22.1,40.3,1006.9,285.3,2.2,6.4,344.0,2.39,8.0,16.8
"17/05/07","11:00",0.0,23.6,27.1,1005.5,282.3,2.3,5.9,352.2,3.33,3.6,18.2
"17/05/07","12:00",0.0,23.9,26.5,1005.2,0.8,3.4,7.4,316.6,3.33,3.6,18.7
"17/05/07","13:00",0.0,25.3,26.4,1003.6,290.4,1.8,9.0,353.4,3.78,4.7,19.9
"17/05/07","14:00",0.0,26.1,20.6,1002.9,290.0,2.3,7.0,8.8,3.58,1.9,20.1
"17/05/07","15:00",0.0,25.5,26.8,1001.5,254.2,2.7,7.2,203.0,3.04,5.1,20.5
"17/05/07","16:00",0.0,25.2,25.6,1001.9,243.9,2.6,7.4,217.3,2.19,4.2,20.1
"17/05/07","17:00",0.0,24.0,25.3,1002.2,227.2,3.0,7.4,177.1,1.39,3.0,19.9
"17/05/07","18:00",0.0,23.2,29.3,1002.6,255.1,2.0,5.5,228.6,0.42,4.4,19.5
"17/05/07","19:00",0.0,20.5,40.3,1003.1,320.7,1.5,3.9,235.0,0.04,6.6,18.7
"17/05/07","20:00",0.0,17.6,48.0,1004.5,300.9,1.6,3.4,325.0,0.00,6.5,18.1
"17/05/07","21:00",0.0,15.1,60.3,1005.2,325.5,1.2,2.8,317.8,0.00,7.5,17.2
"17/05/07","22:00",0.0,15.1,60.0,1006.7,329.8,1.2,2.2,315.4,0.00,7.4,16.7
"17/05/07","23:00",0.0,13.6,66.0,1006.4,337.7,1.6,2.4,323.3,0.00,7.4,16.2
"17/05/07","24:00",0.0,13.3,67.0,1006.7,291.4,1.2,3.2,316.0,0.00,7.3,15.7
"17/05/08","01:00",0.0,12.4,71.2,1006.2,292.8,1.2,2.7,331.5,0.00,7.4,15.2
"17/05/08","02:00",0.0,11.2,77.5,1006.0,323.1,1.3,2.0,328.6,0.00,7.5,15.0
"17/05/08","03:00",0.0,10.3,83.9,1005.7,316.8,1.6,2.4,315.9,0.00,7.7,14.6
"17/05/08","04:00",0.0,9.9,85.5,1006.7,298.4,1.3,2.5,316.8,0.00,7.6,14.3
"17/05/08","05:00",0.0,10.2,84.8,1006.9,301.3,1.6,2.4,316.7,0.00,7.8,13.7
"17/05/08","06:00",0.0,10.1,87.9,1007.8,298.6,1.2,2.6,313.4,0.00,8.2,13.8
"17/05/08","07:00",0.0,14.8,73.8,1008.3,353.1,0.7,2.2,319.9,0.28,10.2,14.1
"17/05/08","08:00",0.0,18.3,59.6,1009.0,204.3,0.8,2.2,216.7,1.03,10.3,14.7
"17/05/08","09:00",0.0,21.7,47.0,1007.6,126.1,1.3,2.7,99.0,1.96,9.9,15.6
"17/05/08","10:00",0.0,23.6,42.4,1006.9,151.6,1.3,3.5,130.0,2.70,10.1,16.6
"17/05/08","11:00",0.0,25.2,28.3,1005.7,222.4,3.0,6.2,230.1,3.24,5.6,17.8
"17/05/08","12:00",0.0,26.7,30.6,1005.7,273.6,1.2,6.7,346.8,3.61,8.0,19.4
"17/05/08","13:00",0.0,27.6,29.6,1005.0,243.5,2.1,5.4,210.9,3.69,8.3,20.8
"17/05/08","14:00",0.0,28.2,25.8,1004.8,250.7,2.0,7.2,231.8,3.52,6.8,20.9
"17/05/08","15:00",0.0,29.3,25.7,1004.3,140.9,1.1,6.5,201.5,3.08,7.7,21.1
"17/05/08","16:00",0.0,28.0,28.3,1002.4,242.4,2.6,7.0,227.0,2.26,8.0,21.2
"17/05/08","17:00",0.0,27.3,29.4,1003.1,265.6,2.1,5.7,231.2,1.35,8.0,20.7
"17/05/08","18:00",0.0,25.4,31.2,1004.5,263.7,2.2,4.9,232.2,0.43,7.2,20.0
"17/05/08","19:00",0.0,23.2,39.0,1005.2,344.1,2.8,5.2,347.7,0.04,8.5,19.5
"17/05/08","20:00",0.0,21.8,40.0,1006.9,328.5,4.5,7.4,315.9,0.00,7.7,18.8
"17/05/08","21:00",0.0,20.5,41.3,1007.8,329.9,1.8,5.7,336.5,0.00,7.0,18.3
"17/05/08","22:00",0.0,19.1,47.1,1008.6,322.6,2.0,3.6,336.6,0.00,7.6,18.1
"17/05/08","23:00",0.0,18.4,47.9,1009.3,336.0,3.0,5.4,341.4,0.00,7.2,17.7
"17/05/08","24:00",0.0,16.9,51.2,1009.5,338.4,2.0,4.7,338.5,0.00,6.8,17.0
"17/05/09","01:00",0.0,16.0,55.0,1009.5,331.9,2.5,4.0,339.3,0.00,7.0,16.7
"17/05/09","02:00",0.0,15.2,57.1,1009.5,328.5,1.8,4.0,355.7,0.00,6.8,16.4
"17/05/09","03:00",0.0,15.4,56.0,1009.3,323.6,2.8,5.0,338.4,0.00,6.7,16.2
"17/05/09","04:00",0.0,15.1,58.4,1009.7,296.4,1.1,5.0,331.5,0.00,7.0,16.1
"17/05/09","05:00",0.0,14.2,63.3,1009.3,295.5,1.2,1.9,321.8,0.00,7.4,15.8
"17/05/09","06:00",0.0,14.9,62.4,1010.0,304.4,1.2,2.4,315.7,0.00,7.8,15.8
"17/05/09","07:00",0.0,15.7,66.9,1010.7,321.8,1.6,2.5,338.1,0.12,9.6,15.9
"17/05/09","08:00",0.0,18.0,56.5,1011.4,336.5,0.6,2.4,332.6,0.44,9.3,16.3
"17/05/09","09:00",0.0,18.9,54.8,1011.2,269.4,0.8,1.9,335.9,0.58,9.7,16.4
"17/05/09","10:00",0.0,20.8,50.1,1010.9,261.6,0.2,2.5,334.5,0.78,10.1,17.1
"17/05/09","11:00",0.0,22.5,43.1,1011.4,172.9,1.6,4.0,173.4,1.13,9.4,17.4
"17/05/09","12:00",0.0,24.1,38.0,1011.4,176.3,1.6,3.5,200.6,1.61,8.9,18.0
"17/05/09","13:00",0.0,22.5,44.5,1011.6,219.5,3.9,7.7,221.8,1.43,9.9,18.4
"17/05/09","14:00",0.0,21.6,53.3,1010.9,9.7,1.1,8.6,228.2,0.72,11.7,18.1
"17/05/09","15:00",0.0,21.7,55.0,1010.0,329.4,1.1,3.7,323.0,0.64,12.3,18.2
"17/05/09","16:00",0.0,21.7,53.5,1010.2,262.7,1.0,3.1,343.0,0.39,11.9,18.2
"17/05/09","17:00",0.0,20.2,59.2,1010.4,293.9,1.1,5.2,235.3,0.14,12.0,17.7
"17/05/09","18:00",0.2,17.2,81.7,1010.4,276.9,1.0,3.4,334.5,0.05,14.1,17.5
"17/05/09","19:00",0.0,16.3,86.0,1010.0,288.8,0.8,2.0,299.2,0.00,14.0,17.3
"17/05/09","20:00",0.0,15.6,89.2,1010.4,286.1,1.2,2.2,326.7,0.00,13.9,17.1
"17/05/09","21:00",0.2,15.6,90.8,1010.2,62.1,1.0,2.4,316.8,0.00,14.1,16.7
"17/05/09","22:00",0.0,15.4,87.5,1010.2,55.0,1.0,3.5,99.7,0.00,13.4,16.7
"17/05/09","23:00",0.0,14.5,90.0,1010.0,89.7,0.3,3.1,53.4,0.00,12.9,16.4
"17/05/09","24:00",0.0,14.5,90.6,1009.0,28.6,1.1,2.8,8.1,0.00,13.0,16.3
"17/05/10","01:00",0.2,14.7,90.5,1008.3,299.7,0.7,2.0,329.5,0.00,13.2,16.4
"17/05/10","02:00",0.0,14.5,94.1,1007.6,244.3,1.2,2.5,321.5,0.00,13.6,16.2
"17/05/10","03:00",0.0,14.5,95.4,1006.4,314.3,0.6,2.8,326.2,0.00,13.8,16.1
"17/05/10","04:00",0.2,15.1,93.9,1006.9,305.5,0.8,3.5,121.1,0.00,14.2,16.0
"17/05/10","05:00",0.0,15.3,93.1,1006.7,348.6,0.5,1.7,330.7,0.00,14.2,15.8
"17/05/10","06:00",0.0,15.1,94.2,1006.4,292.3,0.8,1.7,310.9,0.00,14.2,16.1
"17/05/10","07:00",0.0,15.3,95.3,1006.9,299.5,1.0,1.8,304.3,0.00,14.6,16.0
"17/05/10","08:00",0.2,16.0,94.9,1006.9,310.6,0.8,2.2,303.5,0.08,15.2,16.1
"17/05/10","09:00",0.0,16.5,90.5,1006.9,15.4,0.6,1.7,33.3,0.23,15.0,16.1
"17/05/10","10:00",0.0,17.1,87.8,1007.1,343.4,1.0,2.2,333.4,0.28,15.1,16.4
"17/05/10","11:00",0.0,18.0,86.1,1006.4,321.8,1.2,3.2,348.5,0.42,15.7,16.5
"17/05/10","12:00",0.2,18.5,84.2,1005.5,338.5,1.5,3.2,343.2,0.67,15.8,16.5
"17/05/10","13:00",0.0,18.5,82.2,1004.8,334.7,1.3,3.2,347.7,0.64,15.4,17.0
"17/05/10","14:00",0.0,21.4,72.6,1004.1,357.0,1.0,4.2,340.8,1.86,16.3,17.2
"17/05/10","15:00",0.0,20.5,77.7,1002.6,318.4,1.7,3.6,337.7,1.09,16.5,17.7
"17/05/10","16:00",0.0,20.3,81.5,1001.9,320.5,1.2,3.7,333.2,0.31,17.1,17.7
"17/05/10","17:00",0.0,19.0,88.6,1003.1,192.8,0.3,3.7,344.5,0.06,17.1,17.5
"17/05/10","18:00",0.2,18.3,91.5,1003.4,148.6,0.7,3.2,187.2,0.01,16.9,17.4
"17/05/10","19:00",0.0,17.7,93.3,1004.1,324.2,0.7,1.6,309.2,0.00,16.6,17.2
"17/05/10","20:00",0.0,17.3,94.6,1004.5,337.1,1.2,2.2,325.6,0.00,16.5,17.3
"17/05/10","21:00",0.0,16.4,95.4,1004.3,322.0,1.1,2.2,315.5,0.00,15.7,17.1
"17/05/10","22:00",0.0,16.1,96.4,1005.2,328.5,0.8,1.9,332.3,0.00,15.6,16.7
"17/05/10","23:00",0.0,16.2,96.7,1005.5,293.0,1.0,2.2,319.4,0.00,15.7,16.6
"17/05/10","24:00",0.0,16.0,96.7,1005.2,338.6,1.8,3.3,338.4,0.00,15.5,16.6
"17/05/11","01:00",0.0,16.0,95.8,1005.7,3.2,1.1,3.4,319.6,0.00,15.4,16.4
"17/05/11","02:00",0.0,15.1,96.2,1006.2,322.9,1.6,2.4,334.8,0.00,14.5,16.4
"17/05/11","03:00",0.0,14.6,97.3,1006.4,4.8,0.5,1.9,330.4,0.00,14.2,16.2
"17/05/11","04:00",0.0,13.9,97.7,1006.7,314.4,0.5,2.1,325.5,0.00,13.6,15.8
"17/05/11","05:00",0.0,13.7,97.0,1007.6,313.3,1.1,2.5,337.7,0.00,13.3,15.7
"17/05/11","06:00",0.0,14.0,97.9,1008.3,283.9,0.2,2.1,342.0,0.00,13.7,15.5
"17/05/11","07:00",0.0,16.2,96.2,1008.6,78.1,0.6,2.0,324.0,0.24,15.6,15.6
"17/05/11","08:00",0.0,18.7,81.0,1009.0,329.3,1.0,2.5,340.4,0.84,15.4,15.9
"17/05/11","09:00",0.0,19.6,74.8,1009.5,246.0,2.3,6.8,229.7,1.09,15.0,16.2
"17/05/11","10:00",0.2,21.4,68.3,1008.8,315.8,2.2,5.8,345.7,2.51,15.4,16.7
"17/05/11","11:00",0.0,22.6,59.2,1007.4,271.9,1.8,6.6,346.0,2.57,14.3,17.6
"17/05/11","12:00",0.0,23.2,57.9,1006.2,298.6,1.6,5.4,346.9,3.18,14.5,18.4
"17/05/11","13:00",0.0,25.5,53.6,1004.8,208.2,2.0,5.6,347.6,3.27,15.4,19.5
"17/05/11","14:00",0.0,25.3,50.4,1004.8,257.1,1.7,5.2,345.2,2.83,14.3,19.8
"17/05/11","15:00",0.0,23.9,54.7,1005.2,199.4,2.8,7.8,218.9,0.84,14.3,19.6
"17/05/11","16:00",0.0,25.2,52.7,1005.0,283.6,1.8,5.9,339.1,1.43,14.9,19.6
"17/05/11","17:00",0.0,24.5,54.9,1005.2,252.0,1.7,4.4,229.4,0.76,14.9,19.6
"17/05/11","18:00",0.2,23.5,57.9,1005.5,236.5,1.5,4.5,218.3,0.33,14.8,19.5
"17/05/11","19:00",0.0,21.7,60.3,1006.2,256.8,1.5,5.5,228.0,0.03,13.7,18.7
"17/05/11","20:00",0.0,19.3,73.1,1007.4,301.9,1.1,3.2,270.1,0.00,14.4,18.7
"17/05/11","21:00",0.0,17.7,80.5,1007.8,298.9,0.7,1.9,350.6,0.00,14.3,18.1
"17/05/11","22:00",0.0,17.1,83.9,1008.1,282.8,1.1,2.9,327.8,0.00,14.4,17.9
"17/05/11","23:00",0.0,17.0,84.2,1008.3,338.9,1.2,2.9,335.2,0.00,14.4,17.5
"17/05/11","24:00",0.0,15.6,88.7,1008.1,293.5,1.0,2.0,332.9,0.00,13.8,17.1
"17/05/12","01:00",0.0,14.4,91.6,1008.3,309.9,1.1,2.0,311.6,0.00,13.1,16.7
"17/05/12","02:00",0.0,14.5,93.1,1007.8,283.5,0.8,1.9,331.6,0.00,13.4,16.4
"17/05/12","03:00",0.0,13.5,94.5,1008.3,314.4,1.0,2.0,324.6,0.00,12.7,15.8
"17/05/12","04:00",0.0,13.4,94.6,1009.0,319.7,1.5,2.0,334.3,0.00,12.6,15.8
"17/05/12","05:00",0.0,13.1,96.1,1009.0,324.4,1.2,2.1,322.8,0.00,12.5,15.5
"17/05/12","06:00",0.0,13.6,96.3,1009.5,298.2,0.6,2.2,318.7,0.01,13.1,15.4
"17/05/12","07:00",0.0,17.1,89.0,1010.7,336.9,1.0,2.0,320.5,0.26,15.3,15.6
"17/05/12","08:00",0.0,19.8,76.9,1010.7,222.7,0.2,1.8,301.0,0.96,15.7,16.1
"17/05/12","09:00",0.0,22.7,67.2,1009.3,130.8,0.7,2.6,233.1,1.79,16.3,16.7
"17/05/12","10:00",0.0,24.3,64.6,1007.6,177.8,1.7,3.2,126.9,2.63,17.2,17.5
"17/05/12","11:00",0.0,26.3,56.2,1007.6,133.6,0.8,3.7,162.8,3.15,16.9,18.5
"17/05/12","12:00",0.0,26.2,52.2,1007.1,127.7,1.7,4.4,130.4,2.82,15.7,19.4
"17/05/12","13:00",1.4,26.4,51.3,1006.2,189.2,2.3,4.3,204.6,1.29,15.6,19.6
"17/05/12","14:00",0.2,26.4,49.6,1006.2,196.2,1.7,4.1,194.3,1.21,15.1,19.7
"17/05/12","15:00",0.2,26.4,51.4,1005.7,160.9,1.0,4.1,235.2,1.23,15.6,19.7
"17/05/12","16:00",0.0,26.2,52.6,1005.2,260.6,1.1,3.4,231.3,0.67,15.8,19.6
"17/05/12","17:00",0.0,25.7,52.3,1005.2,263.0,0.8,3.4,233.2,0.49,15.2,19.6
"17/05/12","18:00",0.0,23.8,63.0,1004.1,298.0,1.2,2.1,334.2,0.13,16.4,19.3
"17/05/12","19:00",0.0,22.4,70.8,1005.5,331.8,1.2,2.7,329.6,0.00,16.9,18.9
"17/05/12","20:00",0.0,21.1,73.7,1006.7,298.7,0.8,2.8,335.2,0.00,16.3,18.7
"17/05/12","21:00",0.2,21.7,71.0,1005.0,358.9,2.1,3.5,243.6,0.00,16.3,18.6
"17/05/12","22:00",0.0,21.0,74.1,1005.5,332.9,1.3,3.4,311.3,0.00,16.3,18.3
"17/05/12","23:00",0.0,19.3,84.0,1005.5,313.9,1.2,2.5,336.6,0.00,16.6,18.1
"17/05/12","24:00",0.0,18.5,90.8,1006.0,313.4,1.1,2.1,343.6,0.00,17.0,18.2
"17/05/13","01:00",0.0,17.9,91.3,1006.0,18.3,0.5,3.1,310.5,0.00,16.5,17.8
"17/05/13","02:00",0.0,16.6,90.7,1005.2,145.5,0.7,2.6,145.9,0.00,15.1,17.8
"17/05/13","03:00",0.0,15.6,91.8,1004.3,356.9,1.1,4.1,70.8,0.00,14.3,17.6
"17/05/13","04:00",0.0,15.5,93.2,1003.6,49.1,0.8,3.2,11.6,0.00,14.4,17.3
"17/05/13","05:00",0.0,15.6,93.1,1002.6,115.8,0.6,2.5,115.1,0.00,14.5,17.1
"17/05/13","06:00",0.0,15.5,94.9,1002.4,233.7,0.8,2.6,109.6,0.00,14.7,16.7
"17/05/13","07:00",0.0,15.8,95.1,1001.9,266.7,0.6,4.3,144.9,0.00,15.1,16.9
"17/05/13","08:00",0.0,16.2,95.3,1001.2,70.1,0.5,2.4,318.3,0.00,15.5,16.7
"17/05/13","09:00",0.2,16.3,95.2,1001.2,246.8,0.3,1.4,317.1,0.00,15.6,16.7
"17/05/13","10:00",0.0,16.8,94.9,1000.8,292.1,0.8,2.5,205.1,0.11,16.0,16.8
"17/05/13","11:00",0.0,17.0,94.4,1000.8,283.0,0.8,3.2,46.9,0.25,16.1,17.1
"17/05/13","12:00",0.0,17.9,92.6,1000.5,342.7,0.6,1.9,21.3,0.35,16.7,17.1
"17/05/13","13:00",0.0,18.5,89.8,999.1,3.4,0.6,2.2,66.7,0.36,16.8,17.0
"17/05/13","14:00",0.0,19.0,88.3,999.8,335.9,0.6,2.0,351.5,0.39,17.1,17.4
"17/05/13","15:00",0.0,19.9,85.1,999.3,314.3,1.3,2.6,314.2,0.80,17.4,17.4
"17/05/13","16:00",0.0,20.0,81.8,998.9,316.0,1.1,2.2,340.3,0.63,16.8,17.6
"17/05/13","17:00",0.0,20.1,81.5,998.9,270.7,0.6,1.9,320.7,0.42,16.9,17.7
"17/05/13","18:00",0.0,19.3,85.8,999.8,333.8,1.2,2.4,323.6,0.10,16.9,17.8
"17/05/13","19:00",0.2,18.8,89.2,1000.0,322.9,0.7,2.5,349.2,0.08,17.0,17.5
"17/05/13","20:00",0.0,18.0,92.3,1001.5,279.2,0.1,1.3,353.0,0.00,16.8,17.6
"17/05/13","21:00",0.0,17.5,94.1,1001.5,341.6,0.6,1.1,356.1,0.00,16.6,17.6
"17/05/13","22:00",0.0,17.5,94.9,1002.2,284.8,0.6,1.4,352.5,0.00,16.7,17.4
"17/05/13","23:00",0.0,16.9,95.4,1002.2,292.1,0.6,1.1,322.4,0.00,16.2,17.2
"17/05/13","24:00",0.0,15.7,96.3,1002.6,304.2,0.3,1.0,56.0,0.00,15.2,17.0
"17/05/14","01:00",0.0,15.8,97.1,1002.2,310.4,0.2,0.9,342.3,0.00,15.4,16.9
"17/05/14","02:00",0.0,16.0,97.4,1002.4,265.4,0.3,0.9,326.5,0.00,15.6,16.7
"17/05/14","03:00",0.0,16.4,97.5,1002.6,331.8,0.7,1.2,349.8,0.00,16.0,16.7
"17/05/14","04:00",0.0,15.9,97.6,1003.1,187.0,0.0,1.1,346.1,0.00,15.6,16.7